Location: Bathurst
(33.4193°S, 149.5775°E)
Time: 10:00:40
(UTC+10:00)

Vanguard 1 Rocket - Pass Details

Date: 21 June 2021
Orbit: 650 x 4226 km, 34.3° (Epoch: 02 August)

Event Time Altitude Azimuth Distance (km) Brightness Sun altitude
Rises 15:10:03 0° 257° (WSW) 4,787 11.5 17.9°
Reaches altitude 10° 15:14:25 10° 268° (W) 3,243 11.0 17.2°
Maximum altitude 15:20:11 25° 320° (NW) 1,735 11.2 16.4°
Drops below altitude 10° 15:24:16 10° 16° (NNE) 2,225 9.9 15.7°
Sets 15:26:40 0° 31° (NNE) 3,009 10.2 15.4°
